Regional Weather Roundup
Issued by NWS

Home | Current Version | Previous Version | Text Only | Print | Product List | Glossary Off
Versions: 1 2 3 4 5 6 7 8 9 10 11 12 13 14 15 16 17 18 19 20 21 22 23 24 25 26 27 28 29 30 31 32 33 34 35 36 37 38 39 40 41 42 43 44 45 46 47 48 49 50

591
ASUS43 KMKX 230059
RWRWI

WISCONSIN REGIONAL WEATHER ROUNDUP
NATIONAL WEATHER SERVICE MILWAUKEE/SULLIVAN WI
700 PM CST THU FEB 22 2018

NOTE: "FAIR" INDICATES FEW OR NO CLOUDS BELOW 12,000 FEET WITH NO
SIGNIFICANT WEATHER AND/OR OBSTRUCTIONS TO VISIBILITY.

WIZ001-002-006>008-014>016-023>028-230200-
NORTHWEST WISCONSIN

CITY           SKY/WX    TMP DP  RH WIND       PRES   REMARKS
SUPERIOR ARPT  CLOUDY    23  16  74 E6        30.45F WCI  15
ASHLAND        CLOUDY    20  14  77 NE3       30.45F
HAYWARD        CLOUDY    30  12  47 SE5       30.40F WCI  25
SIREN          CLOUDY    28  11  48 E6        30.39F WCI  22
CUMBERLAND     CLOUDY    28  10  47 E8        30.37F WCI  20
RICE LAKE      FAIR      29  10  44 E13G18    30.41S WCI  19
CHETEK         CLOUDY    29  12  49 SE8       30.39F WCI  21
LADYSMITH      CLOUDY    30  13  48 SE6       30.42S WCI  24
EAU CLAIRE     LGT SNOW  29  16  58 E14G24    30.37F WCI  18
MENOMONIE      LGT SNOW  28  21  75 E14       30.38F WCI  17
NEW RICHMOND   NOT AVBL
OSCEOLA        CLOUDY    29  15  56 E9        30.39F WCI  20
$$

WIZ003>005-009-010-017-018-230200-
NORTH CENTRAL WISCONSIN

CITY           SKY/WX    TMP DP  RH WIND       PRES   REMARKS
MANITOWISH WTR CLOUDY    29  12  48 SE6       30.42F WCI  23
ARBOR VITAE    CLOUDY    32  12  44 SE9       30.43S WCI  24
WOODRUFF       CLOUDY    32  12  44 SE9       30.43S WCI  24
RHINELANDER    CLOUDY    28  15  58 E9        30.44F WCI  19
EAGLE RIVER    MOCLDY    28  10  46 SE6       30.44S WCI  22
LAND O LAKES   MOCLDY    29  11  46 SE6       30.45S WCI  23
PHILLIPS       CLOUDY    28  12  50 E5        30.40F WCI  23
TOMAHAWK       CLOUDY    28  13  53 E3        30.44F
MEDFORD        CLOUDY    27  14  58 E8        30.40F WCI  18
MERRILL        CLOUDY    28  13  53 E8        30.44F WCI  20
$$

WIZ029-030-035-036-043>047-230200-
CENTRAL WISCONSIN

CITY           SKY/WX    TMP DP  RH WIND       PRES   REMARKS
WAUSAU         CLOUDY    27  16  63 E13       30.42F WCI  16
MOSINEE        CLOUDY    27  19  74 E12       30.44F WCI  16
MARSHFIELD     CLOUDY    26  20  77 NE15      30.38F WCI  14
STEVENS POINT  FLURRIES  26  18  70 NE10      30.44F WCI  17
WAUPACA        CLOUDY    32  21  64 NE6       30.46F WCI  26
WAUTOMA        CLOUDY    30  22  72 NE10      30.42F WCI  21
WISC RAPIDS    CLOUDY    29  18  63 E10       30.42F WCI  20
CAMP DOUGLAS   FLURRIES  30  23  74 E14       30.39F WCI  20
$$

WIZ011>013-019>022-031-037>040-048>050-230200-
NORTHEAST WISCONSIN

CITY           SKY/WX    TMP DP  RH WIND       PRES   REMARKS
ANTIGO         CLOUDY    26  16  66 SE5       30.46S WCI  20
SHAWANO        CLOUDY    31  20  65 E7        30.49F WCI  24
OCONTO         CLOUDY    28  22  79 NE5       30.52F WCI  23
STURGEON BAY   CLOUDY    30  25  81 NE5       30.52F WCI  25
GREEN BAY      CLOUDY    30  23  75 NE8       30.48F WCI  22
MANITOWOC      CLOUDY    32  27  81 NE6       30.49  WCI  26
APPLETON       CLOUDY    30  19  64 NE14      30.44F WCI  20
CLINTONVILLE   CLOUDY    30  19  63 E7        30.48F WCI  23
OSHKOSH        CLOUDY    30  23  75 E9        30.45F WCI  22
$$

WIZ032>034-041-042-053>061-230200-
SOUTHWEST WISCONSIN

CITY           SKY/WX    TMP DP  RH WIND       PRES   REMARKS
LA CROSSE      LGT SNOW  30  25  81 E7        30.37F WCI  23
SPARTA         LGT SNOW  30  24  77 E10       30.39F WCI  21
VIROQUA        CLOUDY    28  27  95 E12       30.34F WCI  18
BOSCOBEL       CLOUDY    32  29  88 VRB6      30.37F FOG     WCI  26
PRAIRIE DU CHI CLOUDY    31  29  91 E8        30.35F FOG     WCI  24
PLATTEVILLE    CLOUDY    32  32 100 E17       30.34F WCI  21
$$

WIZ056-057-062-063-064-067-068-230200-
SOUTH CENTRAL WISCONSIN

CITY           SKY/WX    TMP DP  RH WIND       PRES   REMARKS
REEDSBURG      CLOUDY    31  23  74 E8        30.39F WCI  23
BARABOO/DELLS  CLOUDY    31  22  68 E9        30.40S WCI  23
LONE ROCK      CLOUDY    32  30  92 E13       30.38F FOG     WCI  22
MINERAL POINT  CLOUDY    32  32 100 E12       30.34F FOG     WCI  23
MADISON        FRZ DRZL  31  29  92 E12       30.40F FOG     WCI  22
MIDDLETON      CLOUDY    32  31  95 E12       30.40F WCI  23
WATERTOWN      CLOUDY    32  30  93 E9        30.42S FOG     WCI  24
MONROE         CLOUDY    32  32 100 E12       30.36F FOG     WCI  23
JANESVILLE     CLOUDY    34  34 100 E12       30.39F WCI  25
$$

WIZ051-052-058>065-066-070>072-230200-
SOUTHEAST WISCONSIN

CITY           SKY/WX    TMP DP  RH WIND       PRES   REMARKS
MILWAUKEE      CLOUDY    35  31  85 NE13      30.43F WCI  26
WAUKESHA       CLOUDY    30  27  86 E10       30.44F WCI  21
MILWAUKEE/TIMM CLOUDY    32  27  80 NE7       30.45F WCI  26
RACINE         CLOUDY    36  30  79 E13       30.43F WCI  27
BURLINGTON     CLOUDY    33  29  83 E8        30.41F WCI  26
KENOSHA        CLOUDY    36  29  75 E15       30.41F WCI  27
FOND DU LAC    CLOUDY    32  23  69 E7        30.45F WCI  26
SHEBOYGAN      CLOUDY    32  28  85 NE12      30.46F WCI  23
WEST BEND      CLOUDY    32  30  93 E12       30.44F WCI  23
JUNEAU         CLOUDY    31  26  83 NE8       30.44F WCI  23
$$

LSZ147-162-230200-
LAKE SUPERIOR

STATION/POSITION TIME  TEMP    WIND        PRES    WAVE
                       AIR SEA DIR/SP/G            HT/PER
                 (UTC) (F)     (DEG/KT/KT) (MB)    (FT/S)
DEVILS ISLAND    0000   23     130/  4/  5 1033.7F
SAXON HARBOR     0040   22      CALM  /  1 1031.2F
$$

LMZ867-665-643>646-230200-
LAKE MICHIGAN

STATION/POSITION TIME  TEMP    WIND        PRES    WAVE
                       AIR SEA DIR/SP/G            HT/PER
                 (UTC) (F)     (DEG/KT/KT) (MB)    (FT/S)
NORTHPORT PIER   0040   31                 1033.5F
KEWAUNEE LAKESHO 0030   32      40/  7/ 12 1031.9F
SHEBOYGAN LAKESH 0000   33      40/ 14/ 16 1032.8F
PORT WASHINGTON  0040   34      60/  9/ 13 1032.5F
MILWAUKEE LAKESH 0030   33      50/ 13/ 14   N/A
KENOSHA   LAKESH 0000   35      60/  8/  9 1030.8
$$

TC  - TEMPERATURE IN CELSIUS
VSB - VISIBILITY IN STATUTE MILES
WCI - WIND CHILL INDEX
HX  - HEAT INDEX





USA.gov is the U.S. government's official web portal to all federal, state and local government web resources and services.